When you browse on this site, cookies collect data to enhance your experience and personalize the content and advertising you see.
Visit our Privacy Policy to learn more. By continuing to use the site, you agree to this use of cookies and data.
  • En España
  • Lista de países
  • Para 7 días
  • Temperatura del agua
  • Mapa Satelital
  • El tiempo en el mapa
  • Informadores
  • user-avatar
    Iniciar sesión

    Tiempo cada hora Chervonyi Lyman

    Hoy, 19 Marzo, Martes

    Tiempo Temperatura Precipitaciones Viento Presión Humedad
    00:00 +5°C° 0 mm 2 mps 760 mmHg 80%
    01:00 +5°C° 0 mm 2 mps 761 mmHg 81%
    02:00 +4°C° 0 mm 2 mps 761 mmHg 83%
    03:00 +5°C° 0 mm 1 mps 760 mmHg 85%
    04:00 +4°C° 0 mm 2 mps 760 mmHg 86%
    05:00 +3°C° 0 mm 2 mps 761 mmHg 87%
    06:00 +3°C° 0 mm 2 mps 761 mmHg 88%
    07:00 +4°C° 0 mm 2 mps 761 mmHg 84%
    08:00 +4°C° 0 mm 3 mps 761 mmHg 79%
    09:00 +5°C° 0 mm 3 mps 761 mmHg 75%
    10:00 +8°C° 0 mm 3 mps 761 mmHg 69%
    11:00 +9°C° 0 mm 3 mps 761 mmHg 63%
    12:00 +10°C° 0 mm 4 mps 761 mmHg 56%
    13:00 +11°C° 0 mm 3 mps 761 mmHg 54%
    14:00 +12°C° 0 mm 3 mps 761 mmHg 51%
    15:00 +11°C° 0 mm 3 mps 761 mmHg 50%
    16:00 +11°C° 0 mm 3 mps 761 mmHg 52%
    17:00 +10°C° 0 mm 2 mps 760 mmHg 55%
    18:00 +10°C° 0 mm 2 mps 760 mmHg 57%
    19:00 +9°C° 0 mm 2 mps 760 mmHg 61%
    20:00 +8°C° 0 mm 2 mps 761 mmHg 65%
    21:00 +7°C° 0 mm 2 mps 761 mmHg 70%
    22:00 +6°C° 0 mm 2 mps 761 mmHg 72%
    23:00 +6°C° 0 mm 2 mps 761 mmHg 74%

    Mañana, 20 Marzo, Miércoles

    Tiempo Temperatura Precipitaciones Viento Presión Humedad
    00:00 +5°C° 0 mm 2 mps 761 mmHg 76%
    01:00 +5°C° 0 mm 2 mps 761 mmHg 77%
    02:00 +5°C° 0 mm 1 mps 761 mmHg 79%
    03:00 +5°C° 0 mm 1 mps 761 mmHg 80%
    04:00 +5°C° 0 mm 1 mps 761 mmHg 81%
    05:00 +4°C° 0 mm 1 mps 761 mmHg 82%
    06:00 +4°C° 0 mm 1 mps 761 mmHg 82%
    07:00 +5°C° 0 mm 1 mps 761 mmHg 77%
    08:00 +6°C° 0 mm 1 mps 761 mmHg 72%
    09:00 +7°C° 0 mm 1 mps 761 mmHg 67%
    10:00 +9°C° 0 mm 1 mps 761 mmHg 62%
    11:00 +10°C° 0 mm 1 mps 760 mmHg 57%
    12:00 +11°C° 0 mm 1 mps 760 mmHg 52%
    13:00 +12°C° 0 mm 1 mps 760 mmHg 49%
    14:00 +13°C° 0 mm 1 mps 760 mmHg 47%
    15:00 +14°C° 0 mm 1 mps 759 mmHg 44%
    16:00 +13°C° 0 mm 1 mps 759 mmHg 46%
    17:00 +12°C° 0 mm 0 mps 759 mmHg 48%
    18:00 +12°C° 0 mm 0 mps 759 mmHg 50%
    19:00 +11°C° 0 mm 0 mps 759 mmHg 53%
    20:00 +10°C° 0 mm 0 mps 759 mmHg 57%
    21:00 +10°C° 0 mm 1 mps 759 mmHg 60%
    22:00 +10°C° 0 mm 1 mps 759 mmHg 61%
    23:00 +9°C° 0 mm 1 mps 759 mmHg 63%

    Pasado mañana, 21 Marzo, Jueves

    Tiempo Temperatura Precipitaciones Viento Presión Humedad
    00:00 +9°C° 0 mm 1 mps 759 mmHg 65%
    01:00 +8°C° 0 mm 1 mps 759 mmHg 69%
    02:00 +7°C° 0 mm 2 mps 759 mmHg 73%
    03:00 +6°C° 0 mm 2 mps 759 mmHg 76%
    04:00 +4°C° 0 mm 3 mps 759 mmHg 82%
    05:00 +4°C° 0 mm 3 mps 759 mmHg 87%
    06:00 +3°C° 0 mm 3 mps 759 mmHg 93%
    07:00 +4°C° 0 mm 3 mps 759 mmHg 88%
    08:00 +4°C° 0 mm 3 mps 760 mmHg 83%
    09:00 +5°C° 0 mm 3 mps 760 mmHg 78%
    10:00 +6°C° 0 mm 4 mps 760 mmHg 68%
    11:00 +7°C° 0 mm 4 mps 759 mmHg 58%
    12:00 +8°C° 0 mm 4 mps 759 mmHg 48%
    13:00 +8°C° 0 mm 4 mps 759 mmHg 46%
    14:00 +9°C° 0 mm 5 mps 759 mmHg 43%
    15:00 +9°C° 0 mm 5 mps 758 mmHg 41%
    16:00 +8°C° 0 mm 5 mps 758 mmHg 43%
    17:00 +8°C° 0 mm 5 mps 758 mmHg 45%
    18:00 +7°C° 0 mm 5 mps 758 mmHg 47%
    19:00 +7°C° 0 mm 4 mps 758 mmHg 51%
    20:00 +6°C° 0 mm 4 mps 758 mmHg 55%
    21:00 +7°C° 0 mm 3 mps 758 mmHg 59%
    22:00 +5°C° 0 mm 3 mps 758 mmHg 63%
    23:00 +4°C° 0 mm 4 mps 758 mmHg 67%

    22 Marzo, Viernes

    Tiempo Temperatura Precipitaciones Viento Presión Humedad
    00:00 +3°C° 0 mm 4 mps 758 mmHg 70%
    01:00 +3°C° 0 mm 4 mps 758 mmHg 71%
    02:00 +3°C° 0 mm 4 mps 758 mmHg 72%
    03:00 +2°C° 0 mm 3 mps 758 mmHg 73%
    04:00 +2°C° 0 mm 3 mps 759 mmHg 74%
    05:00 +1°C° 0 mm 3 mps 759 mmHg 76%
    06:00 +1°C° 0 mm 3 mps 759 mmHg 77%
    07:00 +1°C° 0 mm 4 mps 759 mmHg 71%
    08:00 +3°C° 0 mm 4 mps 759 mmHg 66%
    09:00 +3°C° 0 mm 5 mps 759 mmHg 60%
    10:00 +5°C° 0 mm 5 mps 759 mmHg 57%
    11:00 +6°C° 0 mm 5 mps 759 mmHg 54%
    12:00 +7°C° 0 mm 5 mps 758 mmHg 51%
    13:00 +8°C° 0 mm 5 mps 758 mmHg 51%
    14:00 +8°C° 0 mm 6 mps 757 mmHg 52%
    15:00 +9°C° 0 mm 6 mps 757 mmHg 52%
    16:00 +9°C° 0 mm 6 mps 756 mmHg 55%
    17:00 +9°C° 0 mm 6 mps 755 mmHg 58%
    18:00 +8°C° 0 mm 6 mps 755 mmHg 61%
    19:00 +8°C° 0 mm 6 mps 755 mmHg 66%
    20:00 +7°C° 0 mm 6 mps 754 mmHg 72%
    21:00 +7°C° 0 mm 6 mps 754 mmHg 78%
    22:00 +7°C° 0.1 mm 6 mps 753 mmHg 79%
    23:00 +7°C° 0.1 mm 6 mps 753 mmHg 81%

    23 Marzo, Sábado

    Tiempo Temperatura Precipitaciones Viento Presión Humedad
    00:00 +7°C° 0.1 mm 6 mps 753 mmHg 82%
    01:00 +5°C° 0.1 mm 6 mps 753 mmHg 78%
    02:00 +5°C° 0.1 mm 6 mps 752 mmHg 73%
    03:00 +5°C° 0.1 mm 6 mps 752 mmHg 69%
    04:00 +3°C° 0 mm 6 mps 753 mmHg 68%
    05:00 +2°C° 0 mm 6 mps 753 mmHg 68%
    06:00 +1°C° 0 mm 6 mps 753 mmHg 67%
    07:00 0°C° 0 mm 7 mps 754 mmHg 66%
    08:00 0°C° 0 mm 7 mps 754 mmHg 65%
    09:00 0°C° 0 mm 8 mps 754 mmHg 64%
    10:00 +2°C° 0 mm 7 mps 755 mmHg 62%
    11:00 +2°C° 0 mm 7 mps 755 mmHg 60%
    12:00 +2°C° 0 mm 7 mps 755 mmHg 58%
    13:00 +3°C° 0 mm 7 mps 755 mmHg 57%
    14:00 +3°C° 0 mm 7 mps 756 mmHg 56%
    15:00 +3°C° 0 mm 7 mps 756 mmHg 55%
    16:00 +3°C° 0 mm 6 mps 756 mmHg 56%
    17:00 +3°C° 0 mm 6 mps 756 mmHg 57%
    18:00 +2°C° 0 mm 6 mps 756 mmHg 58%
    19:00 +2°C° 0 mm 5 mps 757 mmHg 59%
    20:00 +2°C° 0 mm 5 mps 757 mmHg 60%
    21:00 +3°C° 0 mm 4 mps 758 mmHg 61%
    22:00 +2°C° 0 mm 3 mps 758 mmHg 65%
    23:00 +1°C° 0 mm 3 mps 758 mmHg 70%

    24 Marzo, Domingo

    Tiempo Temperatura Precipitaciones Viento Presión Humedad
    00:00 +1°C° 0 mm 2 mps 758 mmHg 74%
    01:00 +1°C° 0 mm 2 mps 758 mmHg 76%
    02:00 +1°C° 0 mm 2 mps 758 mmHg 78%
    03:00 -1°C° 0 mm 2 mps 758 mmHg 79%
    04:00 -1°C° 0 mm 2 mps 758 mmHg 80%
    05:00 -1°C° 0 mm 2 mps 758 mmHg 80%
    06:00 -1°C° 0 mm 2 mps 758 mmHg 81%
    07:00 +1°C° 0 mm 3 mps 758 mmHg 75%
    08:00 +2°C° 0 mm 3 mps 758 mmHg 70%
    09:00 +4°C° 0 mm 4 mps 758 mmHg 64%
    10:00 +5°C° 0 mm 4 mps 758 mmHg 61%
    11:00 +7°C° 0 mm 5 mps 757 mmHg 57%
    12:00 +8°C° 0 mm 5 mps 757 mmHg 53%
    13:00 +9°C° 0 mm 5 mps 757 mmHg 55%
    14:00 +10°C° 0 mm 6 mps 756 mmHg 56%
    15:00 +11°C° 0 mm 6 mps 756 mmHg 57%
    16:00 +10°C° 0.1 mm 5 mps 756 mmHg 65%
    17:00 +10°C° 0.1 mm 4 mps 756 mmHg 73%
    18:00 +8°C° 0.1 mm 4 mps 756 mmHg 81%
    19:00 +9°C° 0 mm 3 mps 756 mmHg 82%
    20:00 +9°C° 0 mm 3 mps 756 mmHg 83%
    21:00 +8°C° 0 mm 2 mps 756 mmHg 84%
    22:00 +7°C° 0 mm 2 mps 757 mmHg 86%
    23:00 +7°C° 0 mm 2 mps 757 mmHg 87%
    Mostrar más